GW6227 Weather Reports


time (UTC)temp
F
wind
direction
speed
knots
gust
knots
rain 1hr
in
rain 24hr
in
rain mn
in
humidity
%
barometer
mb
20260509102454 82 90 4.3 5.2 0.00 0.00 0.14 88 1012.5
20260509101954 82 90 3.5 5.2 0.00 0.00 0.14 88 1012.5
20260509101454 82 113 3.5 4.3 0.00 0.00 0.14 88 1012.2
20260509100954 82 68 5.2 6.1 0.00 0.00 0.14 88 1012.2
20260509100453 82 90 4.3 4.3 0.00 0.00 0.14 87 1012.2
20260509095954 83 90 4.3 4.3 0.00 0.00 0.14 87 1012.2
20260509095453 83 90 4.3 6.1 0.00 0.00 0.14 87 1011.9
20260509094953 83 90 4.3 5.2 0.00 0.00 0.14 86 1011.9
20260509094453 83 68 6.1 7.8 0.00 0.00 0.14 86 1011.9
20260509093953 83 90 5.2 6.1 0.00 0.00 0.14 85 1011.9
20260509093454 84 90 7.0 7.8 0.00 0.00 0.14 84 1011.9
20260509092953 84 90 5.2 7.0 0.00 0.00 0.14 84 1011.9
20260509092453 84 68 4.3 6.1 0.00 0.00 0.14 83 1011.9
20260509091953 85 90 5.2 9.6 0.00 0.00 0.14 82 1011.9
20260509091454 85 90 8.7 11.3 0.00 0.00 0.14 81 1011.9
20260509090953 85 45 4.3 6.1 0.00 0.00 0.14 81 1011.9
20260509090453 85 68 7.8 11.3 0.00 0.00 0.14 80 1011.9
20260509085955 86 68 2.6 6.1 0.00 0.00 0.14 80 1011.9
20260509085453 86 68 5.2 8.7 0.00 0.00 0.14 80 1011.5
20260509084953 86 68 2.6 3.5 0.00 0.00 0.14 79 1011.9
20260509084453 87 45 5.2 11.3 0.00 0.00 0.14 78 1011.5
20260509083953 87 90 3.5 4.3 0.00 0.00 0.14 79 1011.5
20260509083454 87 68 2.6 4.3 0.00 0.00 0.14 78 1011.5
20260509082953 87 90 7.8 8.7 0.00 0.00 0.14 77 1011.5
20260509082457 89 68 2.6 3.5 0.00 0.00 0.14 76 1011.2
20260509081954 89 90 2.6 3.5 0.00 0.00 0.14 77 1011.5
20260509081453 89 68 4.3 6.1 0.00 0.00 0.14 76 1011.2
20260509080953 89 90 5.2 6.1 0.00 0.00 0.14 76 1011.2
20260509080453 89 68 8.7 13.0 0.00 0.00 0.14 75 1011.2
20260509075953 89 90 4.3 4.3 0.00 0.00 0.14 76 1011.2
20260509075453 89 45 2.6 3.5 0.00 0.00 0.14 75 1011.2
20260509074953 90 90 3.5 4.3 0.00 0.00 0.14 75 1011.2
20260509074453 90 90 3.5 5.2 0.00 0.00 0.14 74 1011.2
20260509073953 89 0 5.2 6.1 0.00 0.00 0.14 76 1011.2
20260509073453 89 338 6.1 12.2 0.00 0.00 0.14 74 1011.2
20260509072953 89 90 2.6 5.2 0.00 0.00 0.14 75 1011.2
20260509072453 89 90 6.1 7.0 0.00 0.00 0.14 75 1011.2
20260509071953 90 135 2.6 4.3 0.00 0.00 0.14 73 1011.2
20260509071453 91 90 2.6 4.3 0.00 0.00 0.14 74 1011.5
20260509070953 90 90 4.3 6.1 0.00 0.00 0.14 74 1011.2
20260509070453 90 68 4.3 4.3 0.00 0.00 0.14 74 1011.2
20260509065953 90 68 3.5 5.2 0.00 0.00 0.14 73 1011.5
20260509065454 90 68 4.3 5.2 0.00 0.00 0.14 74 1011.2
20260509064953 91 90 2.6 3.5 0.00 0.00 0.14 72 1011.2
20260509064453 91 90 3.5 4.3 0.00 0.00 0.14 72 1011.2
20260509063955 91 90 2.6 4.3 0.00 0.00 0.14 71 1011.5
20260509063454 92 45 3.5 4.3 0.00 0.00 0.14 72 1011.5
20260509062953 91 113 6.1 7.0 0.00 0.00 0.14 70 1011.5
20260509062453 92 90 2.6 4.3 0.00 0.00 0.14 72 1011.5
20260509061953 92 90 2.6 3.5 0.00 0.00 0.14 72 1011.9
20260509061453 92 68 2.6 4.3 0.00 0.00 0.14 71 1011.5
20260509060953 92 90 4.3 5.2 0.00 0.00 0.14 70 1011.9
20260509060453 91 68 4.3 4.3 0.00 0.00 0.14 72 1011.9
20260509055955 92 45 1.7 3.5 0.00 0.00 0.14 70 1011.9
20260509055454 92 90 1.7 3.5 0.00 0.00 0.14 70 1011.9
20260509054954 94 68 2.6 4.3 0.00 0.00 0.14 69 1012.2
20260509054454 93 90 5.2 7.8 0.00 0.00 0.14 68 1012.2
20260509053954 92 68 5.2 6.1 0.00 0.00 0.14 70 1012.2
20260509053453 92 90 3.5 6.1 0.00 0.00 0.14 69 1012.5
20260509052953 93 90 1.7 1.7 0.00 0.00 0.14 71 1012.2
20260509052453 92 90 4.3 8.7 0.00 0.00 0.14 70 1012.5
20260509051953 93 68 4.3 5.2 0.00 0.00 0.14 69 1012.5
20260509051453 92 68 2.6 4.3 0.00 0.00 0.14 72 1012.9
20260509050953 92 90 2.6 3.5 0.00 0.00 0.14 71 1012.5
20260509050454 92 90 5.2 7.8 0.00 0.00 0.14 69 1012.9
20260509045954 91 135 1.7 2.6 0.00 0.00 0.14 72 1012.9
20260509045453 91 45 4.3 6.1 0.00 0.00 0.14 71 1012.9
20260509044953 91 68 3.5 4.3 0.00 0.00 0.14 72 1012.9
20260509044453 92 68 2.6 3.5 0.00 0.00 0.14 70 1012.9
20260509043953 92 68 2.6 2.6 0.00 0.00 0.14 71 1013.2
20260509043454 92 90 5.2 6.1 0.00 0.00 0.14 71 1013.2
20260509042953 92 90 1.7 1.7 0.00 0.00 0.14 73 1013.5
20260509042454 92 68 1.7 2.6 0.00 0.00 0.14 71 1013.5
20260509041953 91 90 2.6 3.5 0.00 0.00 0.14 72 1013.5
20260509041454 90 68 6.1 8.7 0.00 0.00 0.14 72 1013.5
20260509040953 91 90 3.5 4.3 0.00 0.00 0.14 74 1013.5
20260509040453 91 135 1.7 2.6 0.00 0.00 0.14 72 1013.5
20260509035953 91 90 2.6 3.5 0.00 0.00 0.14 72 1013.9
20260509035454 91 135 0.9 1.7 0.00 0.00 0.14 74 1013.9
20260509034953 91 113 2.6 3.5 0.00 0.00 0.14 73 1013.9
20260509034454 91 90 3.5 4.3 0.00 0.00 0.14 73 1013.9
20260509033953 91 68 4.3 7.8 0.00 0.00 0.14 71 1013.9
20260509033454 91 248 0.9 1.7 0.00 0.00 0.14 73 1013.9
20260509032954 90 45 2.6 4.3 0.00 0.00 0.14 72 1014.2
20260509032453 91 113 2.6 2.6 0.00 0.00 0.14 71 1014.2
20260509031953 90 68 4.3 6.1 0.00 0.00 0.14 70 1014.2
20260509031453 92 68 1.7 1.7 0.00 0.00 0.14 72 1014.2
20260509030953 92 45 4.3 6.1 0.00 0.00 0.14 73 1014.2
20260509030454 91 90 2.6 2.6 0.00 0.00 0.14 74 1014.6
20260509025953 90 68 1.7 2.6 0.01 0.00 0.14 74 1014.6
20260509025453 91 90 1.7 3.5 0.01 0.00 0.14 71 1014.6
20260509024507 90 90 2.6 4.3 0.01 0.00 0.14 73 1014.6
20260509023953 89 90 4.3 6.1 0.01 0.00 0.14 77 1014.6
20260509023453 89 68 5.2 6.1 0.01 0.00 0.14 75 1014.6
20260509022953 88 68 2.6 3.5 0.01 0.00 0.14 77 1014.6
20260509022453 89 68 5.2 6.1 0.01 0.00 0.14 76 1014.6
20260509021953 89 90 6.1 7.8 0.01 0.00 0.14 79 1014.6
20260509021454 88 113 2.6 7.0 0.01 0.00 0.14 80 1014.9
20260509020953 88 68 5.2 6.1 0.01 0.00 0.14 77 1014.9
20260509020455 87 68 7.8 8.7 0.00 0.00 0.13 79 1014.9
20260509015953 87 68 4.3 8.7 0.00 0.00 0.13 81 1014.9
20260509015453 84 90 3.5 4.3 0.00 0.00 0.13 86 1014.9
20260509014954 83 68 5.2 6.1 0.00 0.00 0.13 85 1015.2
20260509014453 85 45 7.0 8.7 0.00 0.00 0.13 85 1014.9
20260509013953 84 68 7.0 9.6 0.00 0.00 0.13 87 1014.9
20260509013454 83 68 5.2 7.0 0.00 0.00 0.13 86 1014.9
20260509012956 83 90 5.2 7.8 0.00 0.00 0.13 88 1015.2
20260509012453 84 90 2.6 2.6 0.00 0.00 0.13 89 1014.9
20260509011953 85 68 4.3 6.1 0.00 0.00 0.13 86 1015.2
20260509011453 85 90 4.3 5.2 0.00 0.00 0.13 89 1015.2
20260509010953 84 68 2.6 4.3 0.00 0.00 0.13 94 1015.2
20260509010455 83 68 4.3 5.2 0.00 0.00 0.13 95 1015.2
20260509005953 79 68 5.2 6.1 0.13 0.00 0.13 94 1015.2
20260509005453 79 45 3.5 4.3 0.05 0.00 0.05 94 1015.2
20260509004954 80 113 1.7 2.6 0.00 0.00 0.00 92 1015.6
20260509004453 81 113 2.6 4.3 0.00 0.00 0.00 89 1015.2
20260509003953 84 68 4.3 7.8 0.00 0.00 0.00 85 1015.2
20260509003453 85 45 1.7 1.7 0.00 0.00 0.00 80 1014.9
20260509002955 87 0 5.2 7.0 0.00 0.00 0.00 77 1014.9
20260509002453 87 90 4.3 4.3 0.00 0.00 0.00 76 1014.6
20260509001954 87 45 5.2 8.7 0.00 0.00 0.00 78 1014.6
20260509001453 86 68 7.8 10.4 0.00 0.00 0.00 79 1014.6
20260509000953 86 45 3.5 4.3 0.00 0.00 0.00 80 1014.6
20260509000455 85 68 5.2 6.1 0.00 0.00 0.00 80 1014.6
20260508235953 85 90 4.3 7.0 0.00 0.00 0.00 81 1014.6
20260508235453 84 45 7.8 12.2 0.00 0.00 0.00 81 1014.6
20260508234953 84 45 3.5 4.3 0.00 0.00 0.00 81 1014.6
20260508234453 85 90 5.2 7.0 0.00 0.00 0.00 80 1014.6
20260508233953 85 68 5.2 6.1 0.00 0.00 0.00 80 1014.6
20260508233453 85 68 5.2 7.8 0.00 0.00 0.00 79 1013.9
20260508232953 84 90 4.3 7.8 0.00 0.00 0.00 80 1014.2
20260508232454 84 68 5.2 8.7 0.00 0.00 0.00 80 1014.2
20260508231953 84 68 4.3 6.1 0.00 0.00 0.00 81 1013.9
20260508231454 84 113 5.2 7.0 0.00 0.00 0.00 80 1013.9
20260508230953 84 23 5.2 7.8 0.00 0.00 0.00 80 1013.9
20260508230453 85 68 4.3 6.1 0.00 0.00 0.00 79 1013.9
20260508225953 86 68 4.3 6.1 0.00 0.00 0.00 77 1013.9
20260508225454 85 90 4.3 6.1 0.00 0.00 0.00 77 1013.5
20260508224953 86 135 3.5 4.3 0.00 0.00 0.00 78 1013.9
20260508224453 85 90 2.6 2.6 0.00 0.00 0.00 78 1013.5
20260508223954 85 45 1.7 3.5 0.00 0.00 0.00 79 1013.5
20260508223453 84 23 3.5 6.1 0.00 0.00 0.00 79 1013.5
20260508222953 84 90 2.6 4.3 0.00 0.00 0.00 80 1013.5
20260508222453 84 90 4.3 6.1 0.00 0.00 0.00 80 1013.5
20260508221953 84 90 5.2 7.0 0.00 0.00 0.00 80 1013.2
20260508221453 83 68 2.6 3.5 0.00 0.00 0.00 81 1013.2
20260508220955 83 90 2.6 4.3 0.00 0.00 0.00 82 1013.2
20260508220454 82 68 2.6 4.3 0.00 0.00 0.00 83 1012.9
20260508215954 82 68 2.6 2.6 0.00 0.00 0.00 83 1012.9
20260508215453 82 90 6.1 7.0 0.00 0.00 0.00 84 1012.9
20260508214954 82 90 5.2 8.7 0.00 0.00 0.00 85 1012.9
20260508214454 81 68 2.6 4.3 0.00 0.00 0.00 85 1013.2
20260508213953 81 68 3.5 6.1 0.00 0.00 0.00 85 1013.2
20260508213453 81 68 4.3 6.1 0.00 0.00 0.00 87 1012.9
20260508212953 80 90 0.0 0.9 0.00 0.00 0.00 87 1012.9
20260508212456 79 68 0.9 1.7 0.00 0.00 0.00 89 1012.9
20260508211954 79 90 0.0 0.0 0.00 0.00 0.00 89 1012.9
20260508211453 79 68 0.0 1.7 0.00 0.00 0.00 88 1012.9
20260508210953 80 338 1.7 1.7 0.00 0.00 0.00 88 1012.9
20260508210453 80 0 0.0 0.9 0.00 0.00 0.00 87 1012.9
20260508205953 80 45 0.9 1.7 0.00 0.00 0.00 86 1012.5
20260508205453 81 68 1.7 2.6 0.00 0.00 0.00 86 1012.5
20260508204953 81 315 1.7 2.6 0.00 0.00 0.00 85 1012.5
20260508204453 81 68 2.6 4.3 0.00 0.00 0.00 85 1012.5
20260508203953 81 68 1.7 2.6 0.00 0.00 0.00 85 1012.9
20260508203453 81 23 2.6 2.6 0.00 0.00 0.00 85 1012.5
20260508202955 81 68 2.6 4.3 0.00 0.00 0.00 86 1012.9
20260508202454 80 68 0.9 1.7 0.00 0.00 0.00 86 1012.9
20260508201954 81 68 1.7 2.6 0.00 0.00 0.00 86 1012.5
20260508201453 80 45 2.6 3.5 0.00 0.00 0.00 86 1012.5
20260508200954 80 68 2.6 3.5 0.00 0.00 0.00 86 1012.5
20260508200453 81 135 1.7 2.6 0.00 0.00 0.00 86 1012.5
20260508195954 80 68 2.6 3.5 0.00 0.00 0.00 86 1012.5
20260508195453 80 68 3.5 4.3 0.00 0.00 0.00 86 1012.2
20260508194954 80 68 2.6 3.5 0.00 0.00 0.00 86 1012.5
20260508194454 80 90 2.6 4.3 0.00 0.00 0.00 86 1012.5
20260508193954 80 45 2.6 4.3 0.00 0.00 0.00 86 1012.5
20260508193453 80 90 1.7 2.6 0.00 0.00 0.00 87 1012.2
20260508192953 80 90 3.5 4.3 0.00 0.00 0.00 86 1012.2
20260508192456 80 45 0.9 1.7 0.00 0.00 0.00 87 1012.5
20260508191953 80 68 0.9 1.7 0.00 0.00 0.00 86 1012.2
20260508191453 80 90 4.3 5.2 0.00 0.00 0.00 86 1012.5
20260508191002 80 90 2.6 3.5 0.00 0.00 0.00 87 1012.2
20260508190453 80 68 3.5 4.3 0.00 0.00 0.00 87 1012.2
20260508185953 80 68 2.6 3.5 0.00 0.00 0.00 87 1012.5
20260508185453 81 45 4.3 4.3 0.00 0.00 0.00 86 1012.5
20260508184954 81 90 3.5 4.3 0.00 0.00 0.00 85 1012.5
20260508184453 81 90 1.7 2.6 0.00 0.00 0.00 85 1012.5
20260508183953 81 68 3.5 4.3 0.00 0.00 0.00 86 1012.5
20260508183457 81 68 4.3 5.2 0.00 0.00 0.00 85 1012.9
20260508182953 81 68 3.5 4.3 0.00 0.00 0.00 84 1012.5
20260508182453 81 113 1.7 1.7 0.00 0.00 0.00 85 1012.9
20260508181953 81 45 1.7 1.7 0.00 0.00 0.00 84 1012.9
20260508181454 82 135 2.6 2.6 0.00 0.00 0.00 83 1012.5
20260508180954 81 113 2.6 3.5 0.00 0.00 0.00 83 1012.9
20260508180454 81 68 4.3 6.1 0.00 0.00 0.00 83 1012.9
20260508175953 82 68 6.1 7.0 0.00 0.00 0.00 83 1012.9
20260508175454 81 45 5.2 7.8 0.00 0.00 0.00 84 1012.9
20260508174953 81 68 4.3 4.3 0.00 0.00 0.00 85 1012.9
20260508174454 81 90 4.3 6.1 0.00 0.00 0.00 85 1012.9
20260508173953 81 113 1.7 2.6 0.00 0.00 0.00 87 1012.9
20260508173453 81 68 6.1 7.0 0.00 0.00 0.00 86 1012.9
20260508172954 81 45 5.2 6.1 0.00 0.00 0.00 86 1012.9
20260508172454 81 45 7.0 8.7 0.00 0.00 0.00 86 1012.9
20260508171953 81 90 6.1 7.8 0.00 0.00 0.00 86 1012.9
20260508171454 81 68 7.0 8.7 0.00 0.00 0.00 86 1013.2
20260508170954 81 90 4.3 5.2 0.00 0.00 0.00 86 1013.2
20260508170453 81 90 3.5 6.1 0.00 0.00 0.00 85 1013.2
20260508165954 81 45 3.5 4.3 0.00 0.00 0.00 86 1013.2
20260508165453 80 45 3.5 5.2 0.00 0.00 0.00 87 1013.2
20260508164953 80 68 2.6 2.6 0.00 0.00 0.00 87 1013.5
20260508164453 81 68 0.9 1.7 0.00 0.00 0.00 87 1013.5
20260508163953 81 45 2.6 3.5 0.00 0.00 0.00 86 1013.2
20260508163454 81 90 1.7 1.7 0.00 0.00 0.00 87 1013.2
20260508162954 81 90 2.6 2.6 0.00 0.00 0.00 86 1013.2
20260508162458 81 90 5.2 7.8 0.00 0.00 0.00 85 1013.2
20260508161954 81 23 3.5 4.3 0.00 0.00 0.00 85 1013.2
20260508161455 82 45 4.3 5.2 0.00 0.00 0.00 85 1013.2
20260508160953 82 90 4.3 4.3 0.00 0.00 0.00 85 1013.2
20260508160453 82 68 5.2 7.8 0.00 0.00 0.00 85 1013.2
20260508155954 82 68 7.0 8.7 0.00 0.00 0.12 85 1013.5
20260508155454 81 45 2.6 3.5 0.00 0.00 0.12 87 1013.5
20260508154954 81 68 2.6 2.6 0.00 0.00 0.12 87 1013.5
20260508154454 81 68 2.6 3.5 0.00 0.00 0.12 87 1013.9
20260508153955 81 135 3.5 4.3 0.00 0.00 0.12 86 1013.9
20260508153453 81 45 5.2 7.0 0.00 0.00 0.12 86 1013.9
20260508152953 82 45 4.3 5.2 0.00 0.00 0.12 86 1014.2
20260508152453 82 90 4.3 6.1 0.00 0.00 0.12 86 1013.9
20260508151953 81 113 3.5 5.2 0.00 0.00 0.12 87 1014.2
20260508151454 81 68 4.3 6.1 0.00 0.00 0.12 87 1014.2
20260508150953 82 68 4.3 6.1 0.00 0.00 0.12 86 1014.2
20260508150454 81 68 7.0 9.6 0.00 0.00 0.12 89 1014.6
20260508145953 81 68 4.3 5.2 0.00 0.00 0.12 90 1014.6
20260508145454 81 68 3.5 4.3 0.00 0.00 0.12 90 1014.2
20260508145000 81 68 3.5 4.3 0.00 0.00 0.12 91 1014.6
20260508144454 81 68 5.2 6.1 0.00 0.00 0.12 91 1014.6
20260508143956 81 68 6.1 7.0 0.00 0.00 0.12 91 1014.6
20260508143454 81 0 5.2 7.0 0.00 0.00 0.12 92 1014.6
20260508142956 80 113 5.2 7.0 0.00 0.00 0.12 93 1014.9
20260508142454 79 68 2.6 3.5 0.00 0.00 0.12 95 1014.6
20260508141953 79 90 3.5 5.2 0.00 0.00 0.12 95 1014.6
20260508141454 79 45 6.1 8.7 0.00 0.00 0.12 95 1014.6
20260508140954 79 90 4.3 6.1 0.00 0.00 0.12 96 1014.6
20260508140453 79 90 3.5 5.2 0.00 0.00 0.12 96 1014.6
20260508135954 79 113 2.6 3.5 0.11 0.00 0.11 95 1014.6
20260508135454 80 90 1.7 2.6 0.11 0.00 0.11 95 1014.6
20260508135001 80 113 7.0 7.8 0.07 0.00 0.07 93 1014.6
20260508134453 80 45 7.0 8.7 0.01 0.00 0.01 93 1014.6
20260508133953 80 90 1.7 2.6 0.00 0.00 0.00 93 1014.6
20260508133454 80 68 4.3 4.3 0.00 0.00 0.00 92 1014.6
20260508132953 80 68 3.5 4.3 0.00 0.00 0.00 91 1014.6
20260508132454 79 68 1.7 2.6 0.00 0.00 0.00 91 1014.6
20260508131953 79 68 3.5 4.3 0.00 0.00 0.00 91 1014.6
20260508131453 80 90 2.6 3.5 0.00 0.00 0.00 91 1014.6
20260508130953 80 68 3.5 4.3 0.00 0.00 0.00 89 1014.6
20260508130453 81 90 2.6 2.6 0.00 0.00 0.00 91 1014.6
20260508125953 81 90 1.7 3.5 0.00 0.00 0.00 90 1014.6
20260508125453 80 113 3.5 5.2 0.00 0.00 0.00 91 1014.6
20260508124953 80 68 1.7 1.7 0.00 0.00 0.00 91 1014.6
20260508124454 80 68 2.6 4.3 0.00 0.00 0.00 91 1014.2
20260508123954 79 68 4.3 7.0 0.00 0.00 0.00 93 1014.2
20260508123454 79 23 4.3 7.0 0.00 0.00 0.00 93 1014.2
20260508122953 79 68 2.6 3.5 0.00 0.00 0.00 93 1014.6
20260508122453 80 68 4.3 5.2 0.00 0.00 0.00 92 1014.6
20260508121954 81 45 7.0 7.8 0.00 0.00 0.00 91 1014.2
20260508121454 82 68 11.3 14.8 0.00 0.00 0.00 88 1014.2
20260508120953 83 90 5.2 6.1 0.00 0.00 0.00 86 1013.9
20260508120453 83 45 6.1 7.8 0.00 0.00 0.00 86 1014.2
20260508115953 83 90 3.5 4.3 0.00 0.00 0.00 87 1013.9
20260508115453 83 315 2.6 4.3 0.00 0.00 0.00 86 1013.9
20260508114953 83 45 7.0 7.0 0.00 0.00 0.00 86 1013.9
20260508114454 83 45 5.2 7.0 0.00 0.00 0.00 86 1013.5
20260508113955 83 68 4.3 8.7 0.00 0.00 0.00 85 1013.5
20260508113454 83 68 4.3 5.2 0.00 0.00 0.00 84 1013.2
20260508112954 83 45 5.2 6.1 0.00 0.00 0.00 84 1013.2
20260508112454 83 90 4.3 5.2 0.00 0.00 0.00 83 1013.5
20260508111953 83 68 6.1 8.7 0.00 0.00 0.00 84 1013.2
20260508111453 83 45 4.3 6.1 0.00 0.00 0.00 84 1012.9
20260508110953 83 90 6.1 9.6 0.00 0.00 0.00 84 1013.2
20260508110453 83 68 3.5 6.1 0.00 0.00 0.00 84 1013.2
20260508105953 83 68 4.3 6.1 0.00 0.00 0.00 83 1013.2
20260508105453 83 113 6.1 7.8 0.00 0.00 0.00 83 1012.9
20260508104953 83 45 5.2 7.0 0.00 0.00 0.00 83 1012.9
20260508104453 83 68 4.3 6.1 0.00 0.00 0.00 83 1012.9
20260508103953 84 68 4.3 4.3 0.00 0.00 0.00 82 1012.9
20260508103454 84 90 5.2 7.0 0.00 0.00 0.00 82 1012.9
20260508102953 84 45 4.3 6.1 0.00 0.00 0.00 82 1012.9